This is the latest recevied weather packets stored in our database for station/object WW4HG. If no packets are shown the sender has not sent any weather packets the latest 10 day(s).
| Time | Temp. | Humidity | Pressure | Rain* | Wind** | Luminosity | Snow |
|---|---|---|---|---|---|---|---|
| 1777752932 | 12.78° C | 85% | 1011.6 hPa | 0 mm | - | 38 W/m² | - |
| 1777752629 | 12.78° C | 85% | 1011.9 hPa | 1.78 mm | - | 41 W/m² | - |
| 1777752325 | 12.78° C | 85% | 1012.3 hPa | 1.78 mm | - | 44 W/m² | - |
| 1777752023 | 12.78° C | 85% | 1012.3 hPa | 0 mm | - | 46 W/m² | - |
| 1777751720 | 12.78° C | 85% | 1012.3 hPa | 0 mm | - | 39 W/m² | - |
| 1777751415 | 12.78° C | 85% | 1012.3 hPa | 1.78 mm | - | 58 W/m² | - |
| 1777751107 | 12.78° C | 85% | 1012.3 hPa | 1.78 mm | - | 55 W/m² | - |
| 1777750803 | 12.78° C | 85% | 1011.9 hPa | 0 mm | - | 64 W/m² | - |
| 1777750500 | 12.78° C | 86% | 1012.3 hPa | 0 mm | - | 69 W/m² | - |
| 1777750195 | 12.78° C | 86% | 1012.3 hPa | 1.78 mm | - | 55 W/m² | - |
| 1777749887 | 12.78° C | 86% | 1012.3 hPa | 1.78 mm | - | 67 W/m² | - |
| 1777749584 | 12.78° C | 86% | 1012.6 hPa | 0 mm | - | 53 W/m² | - |
| 1777749281 | 12.78° C | 86% | 1012.3 hPa | 0 mm | - | 36 W/m² | - |
| 1777748979 | 12.78° C | 86% | 1012.6 hPa | 0 mm | - | 40 W/m² | - |
| 1777748676 | 13.33° C | 86% | 1012.3 hPa | 0 mm | - | 53 W/m² | - |
| 1777748373 | 13.33° C | 86% | 1012.3 hPa | 0 mm | - | 42 W/m² | - |
| 1777748067 | 13.33° C | 86% | 1011.6 hPa | 0 mm | - | 48 W/m² | - |
| 1777747765 | 13.33° C | 86% | 1011.6 hPa | 0 mm | - | 51 W/m² | - |
| 1777747455 | 13.33° C | 85% | 1011.6 hPa | 1.78 mm | - | 45 W/m² | - |
| 1777747151 | 13.33° C | 85% | 1011.6 hPa | 1.78 mm | - | 65 W/m² | - |
| 1777746847 | 13.33° C | 86% | 1011.9 hPa | 0 mm | - | 62 W/m² | - |
| 1777746542 | 13.89° C | 86% | 1012.3 hPa | 0 mm | - | 46 W/m² | - |
| 1777746238 | 13.89° C | 86% | 1012.3 hPa | 0 mm | - | 58 W/m² | - |
| 1777745934 | 13.89° C | 86% | 1011.6 hPa | 0 mm | - | 77 W/m² | - |
| 1777745633 | 13.89° C | 86% | 1011.6 hPa | 0 mm | - | 86 W/m² | - |
* Rain latest hour (hover to see other rain measurements)
** Current wind speed in m/s (hover to see current wind gust speed)